When you browse on this site, cookies collect data to enhance your experience and personalize the content and advertising you see.
Visit our Privacy Policy to learn more. By continuing to use the site, you agree to this use of cookies and data.
  • In Hungary
  • List of Countries
  • For 7 days
  • Water Temperature
  • Weather Map
  • News
  • Weather Widgets
  • user-avatar
    Login

    Hourly Weather Berezyszcze

    Today, 2 April, Thursday

    Time Temperature Precipitation Wind Pressure Humidity
    00:00 -1°C° 0 mm 4 mps 744 mmHg 69%
    01:00 -1°C° 0 mm 5 mps 743 mmHg 68%
    02:00 -2°C° 0 mm 5 mps 743 mmHg 67%
    03:00 -2°C° 0 mm 5 mps 743 mmHg 67%
    04:00 -2°C° 0 mm 5 mps 742 mmHg 67%
    05:00 -2°C° 0 mm 5 mps 742 mmHg 67%
    06:00 -1°C° 0 mm 5 mps 742 mmHg 67%
    07:00 -2°C° 0 mm 6 mps 742 mmHg 66%
    08:00 -1°C° 0 mm 6 mps 742 mmHg 66%
    09:00 +2°C° 0 mm 6 mps 742 mmHg 64%
    10:00 +3°C° 0 mm 6 mps 742 mmHg 62%
    11:00 +4°C° 0 mm 7 mps 741 mmHg 59%
    12:00 +5°C° 0 mm 7 mps 742 mmHg 58%
    13:00 +5°C° 0 mm 7 mps 742 mmHg 56%
    14:00 +5°C° 0 mm 6 mps 742 mmHg 55%
    15:00 +5°C° 0 mm 6 mps 741 mmHg 55%
    16:00 +5°C° 0 mm 6 mps 741 mmHg 56%
    17:00 +5°C° 0 mm 6 mps 740 mmHg 56%
    18:00 +5°C° 0 mm 5 mps 740 mmHg 61%
    19:00 +4°C° 0 mm 4 mps 740 mmHg 65%
    20:00 +3°C° 0 mm 4 mps 740 mmHg 69%
    21:00 +3°C° 0 mm 4 mps 740 mmHg 71%
    22:00 +1°C° 0 mm 4 mps 739 mmHg 74%
    23:00 +1°C° 0 mm 4 mps 739 mmHg 76%

    Tomorrow, 3 April, Friday

    Time Temperature Precipitation Wind Pressure Humidity
    00:00 +1°C° 0 mm 4 mps 738 mmHg 74%
    01:00 +1°C° 0 mm 5 mps 738 mmHg 72%
    02:00 +2°C° 0 mm 5 mps 738 mmHg 69%
    03:00 +2°C° 0 mm 6 mps 737 mmHg 68%
    04:00 +2°C° 0 mm 6 mps 737 mmHg 67%
    05:00 0°C° 0 mm 7 mps 736 mmHg 66%
    06:00 +2°C° 0 mm 7 mps 736 mmHg 66%
    07:00 +2°C° 0 mm 7 mps 737 mmHg 66%
    08:00 +2°C° 0 mm 8 mps 737 mmHg 65%
    09:00 +2°C° 0 mm 8 mps 737 mmHg 68%
    10:00 +3°C° 0 mm 7 mps 737 mmHg 71%
    11:00 +3°C° 0 mm 7 mps 738 mmHg 74%
    12:00 +4°C° 0 mm 7 mps 738 mmHg 64%
    13:00 +5°C° 0 mm 8 mps 739 mmHg 54%
    14:00 +6°C° 0 mm 8 mps 739 mmHg 44%
    15:00 +6°C° 0.1 mm 8 mps 740 mmHg 44%
    16:00 +6°C° 0.1 mm 8 mps 740 mmHg 45%
    17:00 +5°C° 0.1 mm 7 mps 740 mmHg 46%
    18:00 +4°C° 0.1 mm 6 mps 741 mmHg 52%
    19:00 +3°C° 0.1 mm 5 mps 742 mmHg 58%
    20:00 +3°C° 0.1 mm 4 mps 742 mmHg 63%
    21:00 +1°C° 0 mm 4 mps 743 mmHg 67%
    22:00 +2°C° 0 mm 3 mps 743 mmHg 70%
    23:00 +1°C° 0 mm 3 mps 744 mmHg 74%

    Day after tomorrow, 4 April, Saturday

    Time Temperature Precipitation Wind Pressure Humidity
    00:00 +1°C° 0 mm 3 mps 744 mmHg 73%
    01:00 -1°C° 0 mm 4 mps 745 mmHg 71%
    02:00 -1°C° 0 mm 4 mps 746 mmHg 70%
    03:00 -2°C° 0 mm 4 mps 746 mmHg 72%
    04:00 -1°C° 0 mm 3 mps 747 mmHg 74%
    05:00 -2°C° 0 mm 3 mps 747 mmHg 76%
    06:00 -2°C° 0 mm 4 mps 748 mmHg 73%
    07:00 -1°C° 0 mm 4 mps 748 mmHg 71%
    08:00 0°C° 0 mm 5 mps 749 mmHg 69%
    09:00 +1°C° 0.1 mm 5 mps 750 mmHg 63%
    10:00 +2°C° 0.1 mm 5 mps 750 mmHg 57%
    11:00 +3°C° 0.1 mm 5 mps 750 mmHg 52%
    12:00 +4°C° 0.1 mm 6 mps 751 mmHg 49%
    13:00 +4°C° 0.1 mm 6 mps 751 mmHg 45%
    14:00 +5°C° 0.1 mm 6 mps 752 mmHg 42%
    15:00 +5°C° 0 mm 6 mps 752 mmHg 44%
    16:00 +4°C° 0 mm 6 mps 752 mmHg 46%
    17:00 +4°C° 0 mm 6 mps 752 mmHg 48%
    18:00 +3°C° 0.1 mm 5 mps 753 mmHg 53%
    19:00 +3°C° 0.1 mm 4 mps 754 mmHg 57%
    20:00 +1°C° 0.1 mm 4 mps 755 mmHg 61%
    21:00 +1°C° 0 mm 3 mps 756 mmHg 63%
    22:00 0°C° 0 mm 3 mps 756 mmHg 66%
    23:00 -1°C° 0 mm 3 mps 757 mmHg 68%

    5 April, Sunday

    Time Temperature Precipitation Wind Pressure Humidity
    00:00 -1°C° 0 mm 2 mps 758 mmHg 70%
    01:00 -2°C° 0 mm 2 mps 758 mmHg 72%
    02:00 -2°C° 0 mm 2 mps 759 mmHg 74%
    03:00 -2°C° 0 mm 2 mps 759 mmHg 72%
    04:00 -2°C° 0 mm 2 mps 760 mmHg 71%
    05:00 -1°C° 0 mm 1 mps 760 mmHg 70%
    06:00 0°C° 0 mm 1 mps 761 mmHg 62%
    07:00 +2°C° 0 mm 1 mps 761 mmHg 55%
    08:00 +3°C° 0 mm 1 mps 762 mmHg 47%
    09:00 +4°C° 0 mm 1 mps 762 mmHg 41%
    10:00 +6°C° 0 mm 1 mps 762 mmHg 34%
    11:00 +7°C° 0 mm 1 mps 763 mmHg 27%
    12:00 +8°C° 0 mm 1 mps 763 mmHg 26%
    13:00 +9°C° 0 mm 1 mps 763 mmHg 25%
    14:00 +8°C° 0 mm 0 mps 762 mmHg 24%
    15:00 +9°C° 0 mm 1 mps 762 mmHg 24%
    16:00 +9°C° 0 mm 1 mps 762 mmHg 24%
    17:00 +9°C° 0 mm 1 mps 762 mmHg 24%
    18:00 +7°C° 0 mm 1 mps 762 mmHg 28%
    19:00 +6°C° 0 mm 1 mps 762 mmHg 32%
    20:00 +5°C° 0 mm 1 mps 762 mmHg 36%
    21:00 +4°C° 0 mm 1 mps 762 mmHg 37%
    22:00 +3°C° 0 mm 2 mps 762 mmHg 38%
    23:00 +2°C° 0 mm 2 mps 763 mmHg 39%

    6 April, Monday

    Time Temperature Precipitation Wind Pressure Humidity
    00:00 +2°C° 0 mm 2 mps 763 mmHg 41%
    01:00 +1°C° 0 mm 2 mps 763 mmHg 43%
    02:00 +1°C° 0 mm 2 mps 763 mmHg 45%
    03:00 -1°C° 0 mm 2 mps 762 mmHg 46%
    04:00 -1°C° 0 mm 2 mps 762 mmHg 48%
    05:00 -1°C° 0 mm 3 mps 762 mmHg 49%
    06:00 0°C° 0 mm 3 mps 762 mmHg 46%
    07:00 0°C° 0 mm 4 mps 763 mmHg 43%
    08:00 +3°C° 0 mm 4 mps 763 mmHg 40%
    09:00 +5°C° 0 mm 5 mps 763 mmHg 38%
    10:00 +6°C° 0 mm 5 mps 762 mmHg 36%
    11:00 +8°C° 0 mm 5 mps 762 mmHg 34%
    12:00 +9°C° 0 mm 5 mps 762 mmHg 33%
    13:00 +10°C° 0 mm 5 mps 762 mmHg 33%
    14:00 +13°C° 0 mm 5 mps 762 mmHg 32%
    15:00 +13°C° 0 mm 4 mps 761 mmHg 34%
    16:00 +13°C° 0 mm 4 mps 761 mmHg 35%
    17:00 +13°C° 0 mm 4 mps 761 mmHg 37%
    18:00 +11°C° 0 mm 4 mps 760 mmHg 43%
    19:00 +10°C° 0 mm 4 mps 760 mmHg 48%
    20:00 +8°C° 0 mm 3 mps 760 mmHg 54%
    21:00 +7°C° 0 mm 3 mps 760 mmHg 55%
    22:00 +7°C° 0 mm 3 mps 760 mmHg 56%
    23:00 +5°C° 0 mm 3 mps 760 mmHg 57%

    7 April, Tuesday

    Time Temperature Precipitation Wind Pressure Humidity
    00:00 +5°C° 0 mm 3 mps 760 mmHg 59%
    01:00 +4°C° 0 mm 3 mps 760 mmHg 61%
    02:00 +4°C° 0 mm 3 mps 760 mmHg 63%
    03:00 +3°C° 0 mm 3 mps 760 mmHg 66%
    04:00 +3°C° 0 mm 3 mps 759 mmHg 69%
    05:00 +2°C° 0 mm 3 mps 759 mmHg 72%
    06:00 +4°C° 0 mm 4 mps 759 mmHg 67%
    07:00 +5°C° 0 mm 5 mps 759 mmHg 61%
    08:00 +7°C° 0 mm 6 mps 759 mmHg 55%
    09:00 +8°C° 0 mm 6 mps 759 mmHg 52%
    10:00 +10°C° 0 mm 6 mps 759 mmHg 49%
    11:00 +11°C° 0 mm 6 mps 759 mmHg 45%
    12:00 +13°C° 0 mm 6 mps 759 mmHg 44%
    13:00 +14°C° 0 mm 6 mps 759 mmHg 42%
    14:00 +16°C° 0 mm 6 mps 759 mmHg 41%
    15:00 +16°C° 0 mm 5 mps 758 mmHg 43%
    16:00 +16°C° 0 mm 5 mps 758 mmHg 44%
    17:00 +16°C° 0 mm 5 mps 758 mmHg 46%
    18:00 +14°C° 0 mm 4 mps 758 mmHg 54%
    19:00 +13°C° 0 mm 3 mps 758 mmHg 62%
    20:00 +11°C° 0 mm 3 mps 758 mmHg 70%
    21:00 +10°C° 0 mm 3 mps 759 mmHg 77%
    22:00 +9°C° 0 mm 2 mps 759 mmHg 84%
    23:00 +8°C° 0 mm 2 mps 759 mmHg 91%
    Show more